Location: ?????
(37.7324°N, 23.9257°E)
Time: 07:11:28
(UTC+00:00)

Atlas Centaur 2 - Pass Details

Date: 29 November 2020
Orbit: 459 x 1309 km, 30.4° (Epoch: 17 January)

Event Time Altitude Azimuth Distance (km) Brightness Sun altitude
Exits shadow 02:44:32 37° 186° (S) 1,454 3.3 -30.0°
Maximum altitude 02:45:12 38° 172° (S) 1,409 3.3 -29.9°
Drops below altitude 10° 02:50:32 10° 106° (ESE) 2,400 5.5 -28.9°
Sets 02:52:55 0° 98° (E) 3,198 6.5 -28.4°
